Time,TemperatureF,DewpointF,PressureIn,WindDirection,WindDirectionDegrees,WindSpeedMPH,WindSpeedGustMPH,Humidity,HourlyPrecipIn,Conditions,Clouds,dailyrainin,SoftwareType,DateUTC
2013-10-08 00:05:00,51.1,47.7,30.16,WSW,240,0.0,0.0,88,0.00,CLR,SKC,0.00,WeatherDisplay:10.37,2013-10-08 04:05:00,
2013-10-08 00:15:00,50.4,47.3,30.17,WSW,240,0.0,0.0,89,0.00,CLR,SKC,0.00,WeatherDisplay:10.37,2013-10-08 04:15:00,
2013-10-08 00:25:00,49.5,46.7,30.17,WSW,240,0.0,0.0,90,0.00,CLR,SKC,0.00,WeatherDisplay:10.37,2013-10-08 04:25:00,
2013-10-08 00:35:00,48.9,46.4,30.17,WSW,240,0.0,0.0,91,0.00,CLR,SKC,0.00,WeatherDisplay:10.37,2013-10-08 04:35:00,
2013-10-08 00:45:00,47.5,45.0,30.17,WSW,240,0.0,0.0,91,0.00,CLR,SKC,0.00,WeatherDisplay:10.37,2013-10-08 04:45:00,
2013-10-08 00:55:00,48.3,46.1,30.17,WSW,240,0.0,0.0,92,0.00,CLR,SKC,0.00,WeatherDisplay:10.37,2013-10-08 04:55:00,
2013-10-08 01:05:00,48.3,46.1,30.17,WSW,240,0.0,0.0,92,0.00,CLR,SKC,0.00,WeatherDisplay:10.37,2013-10-08 05:05:00,
2013-10-08 01:15:00,48.0,45.8,30.17,WSW,240,0.0,0.0,92,0.00,CLR,SKC,0.00,WeatherDisplay:10.37,2013-10-08 05:15:00,
2013-10-08 01:25:00,48.3,46.1,30.17,WSW,240,0.0,0.0,92,0.00,CLR,SKC,0.00,WeatherDisplay:10.37,2013-10-08 05:25:00,
2013-10-08 01:35:00,47.0,44.7,30.17,WSW,240,0.0,0.0,92,0.00,CLR,SKC,0.00,WeatherDisplay:10.37,2013-10-08 05:35:00,
2013-10-08 01:45:00,48.4,46.2,30.18,WSW,240,0.0,0.0,92,0.00,CLR,SKC,0.00,WeatherDisplay:10.37,2013-10-08 05:45:00,
2013-10-08 01:55:00,47.8,45.6,30.18,WSW,240,0.0,0.0,92,0.00,CLR,SKC,0.00,WeatherDisplay:10.37,2013-10-08 05:55:00,
2013-10-08 02:05:00,47.5,45.3,30.18,WSW,240,0.0,0.0,92,0.00,CLR,SKC,0.00,WeatherDisplay:10.37,2013-10-08 06:05:00,
2013-10-08 02:15:00,48.3,46.1,30.18,WSW,240,0.0,0.0,92,0.00,CLR,SKC,0.00,WeatherDisplay:10.37,2013-10-08 06:15:00,
2013-10-08 02:25:00,47.5,45.3,30.19,WSW,240,0.0,0.0,92,0.00,CLR,SKC,0.00,WeatherDisplay:10.37,2013-10-08 06:25:00,
2013-10-08 02:35:00,48.0,45.8,30.19,WSW,240,0.0,0.0,92,0.00,CLR,SKC,0.00,WeatherDisplay:10.37,2013-10-08 06:35:00,
2013-10-08 02:45:00,47.5,45.3,30.19,WSW,240,0.0,0.0,92,0.00,CLR,SKC,0.00,WeatherDisplay:10.37,2013-10-08 06:45:00,
2013-10-08 02:55:00,48.1,45.9,30.19,WSW,240,0.0,0.0,92,0.00,CLR,SKC,0.00,WeatherDisplay:10.37,2013-10-08 06:55:00,
2013-10-08 03:05:00,47.6,45.4,30.19,WSW,240,0.0,0.0,92,0.00,CLR,SKC,0.00,WeatherDisplay:10.37,2013-10-08 07:05:00,
2013-10-08 03:15:00,47.3,45.1,30.19,WSW,240,0.0,0.0,92,0.00,CLR,SKC,0.00,WeatherDisplay:10.37,2013-10-08 07:15:00,
2013-10-08 03:25:00,47.0,44.8,30.19,WSW,240,0.0,0.0,92,0.00,CLR,SKC,0.00,WeatherDisplay:10.37,2013-10-08 07:25:00,
2013-10-08 03:35:00,46.9,44.7,30.19,WSW,240,0.0,0.0,92,0.00,CLR,SKC,0.00,WeatherDisplay:10.37,2013-10-08 07:35:00,
2013-10-08 03:45:00,47.7,45.5,30.19,WSW,240,0.0,0.0,92,0.00,CLR,SKC,0.00,WeatherDisplay:10.37,2013-10-08 07:45:00,
2013-10-08 03:55:00,46.4,44.2,30.19,WSW,240,0.0,0.0,92,0.00,CLR,SKC,0.00,WeatherDisplay:10.37,2013-10-08 07:55:00,
2013-10-08 04:05:00,46.6,44.7,30.19,WSW,240,0.0,0.0,93,0.00,CLR,SKC,0.00,WeatherDisplay:10.37,2013-10-08 08:05:00,
2013-10-08 04:15:00,46.6,44.7,30.20,WSW,240,0.0,0.0,93,0.00,CLR,SKC,0.00,WeatherDisplay:10.37,2013-10-08 08:15:00,
2013-10-08 04:25:00,46.7,44.8,30.20,WSW,240,0.0,0.0,93,0.00,CLR,SKC,0.00,WeatherDisplay:10.37,2013-10-08 08:25:00,
2013-10-08 04:35:00,46.0,44.0,30.20,WSW,240,0.0,0.0,93,0.00,CLR,SKC,0.00,WeatherDisplay:10.37,2013-10-08 08:35:00,
2013-10-08 04:45:00,45.9,44.0,30.20,WSW,240,0.0,0.0,93,0.00,CLR,SKC,0.00,WeatherDisplay:10.37,2013-10-08 08:45:00,
2013-10-08 04:55:00,45.7,43.7,30.21,WSW,240,0.0,0.0,93,0.00,CLR,SKC,0.00,WeatherDisplay:10.37,2013-10-08 08:55:00,
2013-10-08 05:05:00,45.7,44.0,30.21,WSW,240,0.0,0.0,94,0.00,CLR,SKC,0.00,WeatherDisplay:10.37,2013-10-08 09:05:00,
2013-10-08 05:15:00,45.8,43.9,30.21,WSW,240,0.0,0.0,93,0.00,CLR,SKC,0.00,WeatherDisplay:10.37,2013-10-08 09:15:00,
2013-10-08 05:25:00,45.3,43.4,30.21,WSW,240,0.0,0.0,93,0.00,CLR,SKC,0.00,WeatherDisplay:10.37,2013-10-08 09:25:00,
2013-10-08 05:34:00,45.5,43.6,30.21,WSW,240,0.0,0.0,93,0.00,CLR,SKC,0.00,WeatherDisplay:10.37,2013-10-08 09:34:00,
2013-10-08 05:45:00,45.1,43.5,30.22,WSW,240,0.0,0.0,94,0.00,CLR,SKC,0.00,WeatherDisplay:10.37,2013-10-08 09:45:00,
2013-10-08 05:54:00,45.3,43.6,30.22,WSW,240,0.0,0.0,94,0.00,CLR,SKC,0.00,WeatherDisplay:10.37,2013-10-08 09:54:00,
2013-10-08 06:04:00,45.3,43.6,30.22,WSW,240,0.0,0.0,94,0.00,CLR,SKC,0.00,WeatherDisplay:10.37,2013-10-08 10:04:00,
2013-10-08 06:14:00,45.0,43.4,30.22,WSW,240,0.0,0.0,94,0.00,CLR,SKC,0.00,WeatherDisplay:10.37,2013-10-08 10:14:00,
2013-10-08 06:24:00,45.1,43.5,30.22,WSW,240,0.0,0.0,94,0.00,CLR,SKC,0.00,WeatherDisplay:10.37,2013-10-08 10:24:00,
2013-10-08 06:34:00,44.6,43.0,30.23,WSW,240,0.0,0.0,94,0.00,CLR,SKC,0.00,WeatherDisplay:10.37,2013-10-08 10:34:00,
2013-10-08 06:44:00,45.0,43.4,30.23,WSW,240,0.0,0.0,94,0.00,CLR,SKC,0.00,WeatherDisplay:10.37,2013-10-08 10:44:00,
2013-10-08 06:54:00,44.9,43.3,30.23,WSW,240,0.0,0.0,94,0.00,CLR,SKC,0.00,WeatherDisplay:10.37,2013-10-08 10:54:00,
2013-10-08 07:04:00,44.8,43.2,30.23,WSW,240,0.0,0.0,94,0.00,CLR,SKC,0.00,WeatherDisplay:10.37,2013-10-08 11:04:00,
2013-10-08 07:14:00,45.5,43.9,30.24,WSW,240,0.0,0.0,94,0.00,CLR,SKC,0.00,WeatherDisplay:10.37,2013-10-08 11:14:00,
2013-10-08 07:24:00,44.8,43.2,30.24,WSW,240,0.0,0.0,94,0.00,CLR,SKC,0.00,WeatherDisplay:10.37,2013-10-08 11:24:00,
2013-10-08 07:34:00,45.1,43.2,30.25,WSW,240,0.0,0.0,93,0.00,CLR,SKC,0.00,WeatherDisplay:10.37,2013-10-08 11:34:00,
2013-10-08 07:44:00,45.5,43.9,30.25,WSW,240,0.0,0.0,94,0.00,CLR,SKC,0.00,WeatherDisplay:10.37,2013-10-08 11:44:00,
2013-10-08 07:54:00,45.3,44.0,30.26,WSW,240,0.0,0.0,95,0.00,CLR,SKC,0.00,WeatherDisplay:10.37,2013-10-08 11:54:00,
2013-10-08 08:04:00,44.6,43.3,30.26,WSW,240,0.0,0.0,95,0.00,CLR,SKC,0.00,WeatherDisplay:10.37,2013-10-08 12:04:00,
2013-10-08 08:14:00,45.3,44.0,30.26,WSW,240,0.0,0.0,95,0.00,CLR,SKC,0.00,WeatherDisplay:10.37,2013-10-08 12:14:00,
2013-10-08 08:24:00,46.6,45.0,30.27,WSW,240,0.0,0.0,94,0.00,CLR,SKC,0.00,WeatherDisplay:10.37,2013-10-08 12:24:00,
2013-10-08 08:34:00,46.4,44.8,30.27,WSW,240,0.0,0.0,94,0.00,CLR,SKC,0.00,WeatherDisplay:10.37,2013-10-08 12:34:00,
2013-10-08 08:44:00,47.4,45.8,30.27,WSW,240,0.0,0.0,94,0.00,CLR,SKC,0.00,WeatherDisplay:10.37,2013-10-08 12:44:00,
2013-10-08 08:54:00,47.8,46.1,30.28,WSW,240,0.0,0.0,94,0.00,CLR,SKC,0.00,WeatherDisplay:10.37,2013-10-08 12:54:00,
2013-10-08 09:04:00,49.4,47.5,30.28,WSW,240,0.0,0.0,93,0.00,CLR,SKC,0.00,WeatherDisplay:10.37,2013-10-08 13:04:00,
2013-10-08 09:14:00,50.8,48.6,30.28,WSW,240,0.0,0.0,92,0.00,CLR,SKC,0.00,WeatherDisplay:10.37,2013-10-08 13:14:00,
2013-10-08 09:24:00,51.6,49.1,30.29,WSW,240,0.0,0.0,91,0.00,CLR,SKC,0.00,WeatherDisplay:10.37,2013-10-08 13:24:00,
2013-10-08 09:34:00,53.1,49.6,30.29,SE,141,0.0,12.0,88,0.00,CLR,SKC,0.00,WeatherDisplay:10.37,2013-10-08 13:34:00,
2013-10-08 09:44:00,53.4,49.4,30.29,SE,134,0.0,0.0,86,0.00,CLR,SKC,0.00,WeatherDisplay:10.37,2013-10-08 13:44:00,
2013-10-08 09:54:00,54.8,50.0,30.29,SE,134,0.0,0.0,84,0.00,CLR,SKC,0.00,WeatherDisplay:10.37,2013-10-08 13:54:00,
2013-10-08 10:04:00,55.4,49.4,30.29,SE,134,0.0,0.0,80,0.00,CLR,SKC,0.00,WeatherDisplay:10.37,2013-10-08 14:04:00,
2013-10-08 10:14:00,56.5,50.7,30.30,SE,134,0.0,3.0,81,0.00,CLR,SKC,0.00,WeatherDisplay:10.37,2013-10-08 14:14:00,
2013-10-08 10:24:00,57.2,49.0,30.30,SSE,152,0.0,6.0,74,0.00,CLR,SKC,0.00,WeatherDisplay:10.37,2013-10-08 14:24:00,
2013-10-08 10:34:00,57.6,48.3,30.30,SSE,152,0.0,0.0,71,0.00,CLR,SKC,0.00,WeatherDisplay:10.37,2013-10-08 14:34:00,
2013-10-08 10:44:00,58.3,45.3,30.29,SE,146,2.0,7.0,62,0.00,CLR,SKC,0.00,WeatherDisplay:10.37,2013-10-08 14:44:00,
2013-10-08 10:54:00,58.5,45.1,30.29,SE,138,0.0,0.0,61,0.00,CLR,SKC,0.00,WeatherDisplay:10.37,2013-10-08 14:54:00,
2013-10-08 11:04:00,60.7,48.4,30.29,SE,141,2.0,8.0,64,0.00,CLR,SKC,0.00,WeatherDisplay:10.37,2013-10-08 15:04:00,
2013-10-08 11:14:00,58.9,45.9,30.29,SE,136,1.0,5.0,62,0.00,CLR,SKC,0.00,WeatherDisplay:10.37,2013-10-08 15:14:00,
2013-10-08 11:24:00,58.9,44.1,30.29,ESE,115,0.0,6.0,58,0.00,CLR,SKC,0.00,WeatherDisplay:10.37,2013-10-08 15:24:00,
2013-10-08 11:34:00,59.4,44.6,30.29,SSE,150,1.0,7.0,58,0.00,CLR,SKC,0.00,WeatherDisplay:10.37,2013-10-08 15:34:00,
2013-10-08 11:44:00,60.7,46.7,30.29,SSE,147,0.0,6.0,60,0.00,CLR,SKC,0.00,WeatherDisplay:10.37,2013-10-08 15:44:00,
2013-10-08 11:54:00,59.9,41.7,30.28,East,98,0.0,0.0,51,0.00,CLR,SKC,0.00,WeatherDisplay:10.37,2013-10-08 15:54:00,
2013-10-08 12:04:00,60.7,43.9,30.28,East,98,0.0,0.0,54,0.00,CLR,SKC,0.00,WeatherDisplay:10.37,2013-10-08 16:04:00,
2013-10-08 12:14:00,62.1,48.0,30.28,East,98,0.0,3.0,60,0.00,CLR,SKC,0.00,WeatherDisplay:10.37,2013-10-08 16:14:00,
2013-10-08 12:24:00,61.8,46.9,30.28,East,98,0.0,0.0,58,0.00,CLR,SKC,0.00,WeatherDisplay:10.37,2013-10-08 16:24:00,
2013-10-08 12:34:00,62.7,45.8,30.28,East,101,0.0,8.0,54,0.00,CLR,SKC,0.00,WeatherDisplay:10.37,2013-10-08 16:34:00,
2013-10-08 12:44:00,62.9,47.4,30.28,SSE,155,0.0,9.0,57,0.00,CLR,SKC,0.00,WeatherDisplay:10.37,2013-10-08 16:44:00,
2013-10-08 12:54:00,64.0,47.0,30.28,SSE,165,0.0,7.0,54,0.00,CLR,SKC,0.00,WeatherDisplay:10.37,2013-10-08 16:54:00,
2013-10-08 13:04:00,62.8,45.9,30.27,ESE,123,1.0,8.0,54,0.00,CLR,SKC,0.00,WeatherDisplay:10.37,2013-10-08 17:04:00,
2013-10-08 13:14:00,63.8,45.8,30.27,SSE,154,0.0,8.0,52,0.00,CLR,SKC,0.00,WeatherDisplay:10.37,2013-10-08 17:14:00,
2013-10-08 13:24:00,63.4,45.4,30.27,SE,133,0.0,10.0,52,0.00,CLR,SKC,0.00,WeatherDisplay:10.37,2013-10-08 17:24:00,
2013-10-08 13:34:00,63.9,45.4,30.27,ESE,118,3.0,9.0,51,0.00,CLR,SKC,0.00,WeatherDisplay:10.37,2013-10-08 17:34:00,
2013-10-08 13:44:00,64.1,44.6,30.26,ENE,78,0.0,9.0,49,0.00,CLR,SKC,0.00,WeatherDisplay:10.37,2013-10-08 17:44:00,
2013-10-08 13:54:00,65.4,46.3,30.26,ESE,108,3.0,11.0,50,0.00,CLR,SKC,0.00,WeatherDisplay:10.37,2013-10-08 17:54:00,
2013-10-08 14:04:00,64.0,47.0,30.26,ESE,123,0.0,9.0,54,0.00,CLR,SKC,0.00,WeatherDisplay:10.37,2013-10-08 18:04:00,
2013-10-08 14:14:00,65.6,48.0,30.25,ESE,106,5.0,9.0,53,0.00,CLR,SKC,0.00,WeatherDisplay:10.37,2013-10-08 18:14:00,
2013-10-08 14:24:00,65.7,47.6,30.25,SSE,152,6.0,10.0,52,0.00,CLR,SKC,0.00,WeatherDisplay:10.37,2013-10-08 18:24:00,
2013-10-08 14:34:00,64.6,45.0,30.24,SE,129,3.0,10.0,49,0.00,CLR,SKC,0.00,WeatherDisplay:10.37,2013-10-08 18:34:00,
2013-10-08 14:44:00,65.3,43.4,30.24,SE,124,3.0,8.0,45,0.00,CLR,SKC,0.00,WeatherDisplay:10.37,2013-10-08 18:44:00,
2013-10-08 14:54:00,65.2,43.9,30.24,SSE,166,5.0,11.0,46,0.00,CLR,SKC,0.00,WeatherDisplay:10.37,2013-10-08 18:54:00,
2013-10-08 15:04:00,65.8,43.8,30.24,SSE,147,5.0,11.0,45,0.00,CLR,SKC,0.00,WeatherDisplay:10.37,2013-10-08 19:04:00,
2013-10-08 15:14:00,66.3,43.1,30.24,SE,140,2.0,12.0,43,0.00,CLR,SKC,0.00,WeatherDisplay:10.37,2013-10-08 19:14:00,
2013-10-08 15:24:00,65.6,37.9,30.24,SSE,151,3.0,10.0,36,0.00,CLR,SKC,0.00,WeatherDisplay:10.37,2013-10-08 19:24:00,
2013-10-08 15:34:00,68.2,42.3,30.24,East,99,3.0,9.0,39,0.00,CLR,SKC,0.00,WeatherDisplay:10.37,2013-10-08 19:34:00,
2013-10-08 15:44:00,66.5,37.3,30.24,East,98,0.0,9.0,34,0.00,CLR,SKC,0.00,WeatherDisplay:10.37,2013-10-08 19:44:00,
2013-10-08 15:54:00,66.1,39.1,30.24,East,90,1.0,8.0,37,0.00,CLR,SKC,0.00,WeatherDisplay:10.37,2013-10-08 19:54:00,
2013-10-08 16:04:00,67.6,37.4,30.23,East,100,0.0,8.0,33,0.00,CLR,SKC,0.00,WeatherDisplay:10.37,2013-10-08 20:04:00,
2013-10-08 16:14:00,66.7,36.7,30.23,ESE,113,0.0,7.0,33,0.00,CLR,SKC,0.00,WeatherDisplay:10.37,2013-10-08 20:14:00,
2013-10-08 16:24:00,67.4,39.5,30.23,SSE,157,2.0,8.0,36,0.00,CLR,SKC,0.00,WeatherDisplay:10.37,2013-10-08 20:24:00,
2013-10-08 16:34:00,68.0,40.0,30.23,South,172,1.0,8.0,36,0.00,CLR,SKC,0.00,WeatherDisplay:10.37,2013-10-08 20:34:00,
2013-10-08 16:44:00,67.7,36.7,30.23,ESE,112,0.0,8.0,32,0.00,CLR,SKC,0.00,WeatherDisplay:10.37,2013-10-08 20:44:00,
2013-10-08 16:54:00,66.8,39.0,30.23,East,94,1.0,9.0,36,0.00,CLR,SKC,0.00,WeatherDisplay:10.37,2013-10-08 20:54:00,
2013-10-08 17:04:00,68.2,37.2,30.23,SE,129,0.0,7.0,32,0.00,CLR,SKC,0.00,WeatherDisplay:10.37,2013-10-08 21:04:00,
2013-10-08 17:14:00,67.5,40.3,30.23,SE,130,0.0,8.0,37,0.00,CLR,SKC,0.00,WeatherDisplay:10.37,2013-10-08 21:14:00,
2013-10-08 17:24:00,68.7,43.4,30.23,ESE,110,0.0,9.0,40,0.00,CLR,SKC,0.00,WeatherDisplay:10.37,2013-10-08 21:24:00,
2013-10-08 17:33:00,68.5,42.6,30.23,ESE,121,1.0,9.0,39,0.00,CLR,SKC,0.00,WeatherDisplay:10.37,2013-10-08 21:33:00,
2013-10-08 17:43:00,68.0,43.5,30.23,ESE,117,0.0,8.0,41,0.00,CLR,SKC,0.00,WeatherDisplay:10.37,2013-10-08 21:43:00,
2013-10-08 17:53:00,67.4,42.9,30.23,ESE,117,0.0,0.0,41,0.00,CLR,SKC,0.00,WeatherDisplay:10.37,2013-10-08 21:53:00,
2013-10-08 18:03:00,68.2,44.2,30.23,South,169,0.0,7.0,42,0.00,CLR,SKC,0.00,WeatherDisplay:10.37,2013-10-08 22:03:00,
2013-10-08 18:13:00,67.5,43.6,30.24,ESE,119,0.0,6.0,42,0.00,CLR,SKC,0.00,WeatherDisplay:10.37,2013-10-08 22:13:00,
2013-10-08 18:23:00,66.2,40.5,30.24,SE,128,1.0,6.0,39,0.00,CLR,SKC,0.00,WeatherDisplay:10.37,2013-10-08 22:23:00,
2013-10-08 18:33:00,66.5,39.5,30.24,South,185,0.0,3.0,37,0.00,CLR,SKC,0.00,WeatherDisplay:10.37,2013-10-08 22:33:00,
2013-10-08 18:43:00,66.2,44.8,30.24,SSE,147,0.0,7.0,46,0.00,CLR,SKC,0.00,WeatherDisplay:10.37,2013-10-08 22:43:00,
2013-10-08 18:53:00,65.6,43.1,30.24,SSE,161,0.0,7.0,44,0.00,CLR,SKC,0.00,WeatherDisplay:10.37,2013-10-08 22:53:00,
2013-10-08 19:03:00,65.7,46.5,30.24,SSE,163,0.0,0.0,50,0.00,CLR,SKC,0.00,WeatherDisplay:10.37,2013-10-08 23:03:00,
2013-10-08 19:13:00,64.6,46.5,30.24,SSE,163,0.0,0.0,52,0.00,CLR,SKC,0.00,WeatherDisplay:10.37,2013-10-08 23:13:00,
2013-10-08 19:23:00,64.2,46.7,30.24,SSE,163,0.0,0.0,53,0.00,CLR,SKC,0.00,WeatherDisplay:10.37,2013-10-08 23:23:00,
2013-10-08 19:33:00,62.2,45.8,30.24,SSE,163,0.0,0.0,55,0.00,CLR,SKC,0.00,WeatherDisplay:10.37,2013-10-08 23:33:00,
2013-10-08 19:43:00,61.3,46.8,30.25,SSE,163,0.0,0.0,59,0.00,CLR,SKC,0.00,WeatherDisplay:10.37,2013-10-08 23:43:00,
2013-10-08 19:53:00,59.7,46.2,30.25,SSE,163,0.0,0.0,61,0.00,CLR,SKC,0.00,WeatherDisplay:10.37,2013-10-08 23:53:00,
2013-10-08 20:03:00,59.8,47.2,30.25,SSE,163,0.0,0.0,63,0.00,CLR,SKC,0.00,WeatherDisplay:10.37,2013-10-09 00:03:00,
2013-10-08 20:13:00,59.1,46.5,30.25,SSE,163,0.0,0.0,63,0.00,CLR,SKC,0.00,WeatherDisplay:10.37,2013-10-09 00:13:00,
2013-10-08 20:23:00,58.9,46.8,30.25,SSE,163,0.0,0.0,64,0.00,CLR,SKC,0.00,WeatherDisplay:10.37,2013-10-09 00:23:00,
2013-10-08 20:33:00,58.0,46.7,30.25,SSE,163,0.0,0.0,66,0.00,CLR,SKC,0.00,WeatherDisplay:10.37,2013-10-09 00:33:00,
2013-10-08 20:43:00,57.4,47.0,30.25,SSE,163,0.0,0.0,68,0.00,CLR,SKC,0.00,WeatherDisplay:10.37,2013-10-09 00:43:00,
2013-10-08 20:53:00,56.9,46.9,30.25,SSE,163,0.0,0.0,69,0.00,CLR,SKC,0.00,WeatherDisplay:10.37,2013-10-09 00:53:00,
2013-10-08 21:03:00,56.2,46.9,30.26,SSE,163,0.0,0.0,71,0.00,CLR,SKC,0.00,WeatherDisplay:10.37,2013-10-09 01:03:00,
2013-10-08 21:13:00,56.4,47.8,30.26,SSE,163,0.0,0.0,73,0.00,CLR,SKC,0.00,WeatherDisplay:10.37,2013-10-09 01:13:00,
2013-10-08 21:23:00,55.8,47.6,30.26,SSE,163,0.0,0.0,74,0.00,CLR,SKC,0.00,WeatherDisplay:10.37,2013-10-09 01:23:00,
2013-10-08 21:33:00,56.9,49.1,30.26,SSE,163,0.0,0.0,75,0.00,CLR,SKC,0.00,WeatherDisplay:10.37,2013-10-09 01:33:00,
2013-10-08 21:43:00,56.7,49.2,30.26,SSE,163,0.0,0.0,76,0.00,CLR,SKC,0.00,WeatherDisplay:10.37,2013-10-09 01:43:00,
2013-10-08 21:53:00,55.8,48.7,30.26,SSE,163,0.0,0.0,77,0.00,CLR,SKC,0.00,WeatherDisplay:10.37,2013-10-09 01:53:00,
2013-10-08 22:03:00,55.6,48.8,30.26,SSE,163,0.0,0.0,78,0.00,CLR,SKC,0.00,WeatherDisplay:10.37,2013-10-09 02:03:00,
2013-10-08 22:13:00,54.6,48.6,30.26,SSE,163,0.0,0.0,80,0.00,CLR,SKC,0.00,WeatherDisplay:10.37,2013-10-09 02:13:00,
2013-10-08 22:23:00,54.8,49.1,30.26,SSE,163,0.0,0.0,81,0.00,CLR,SKC,0.00,WeatherDisplay:10.37,2013-10-09 02:23:00,
2013-10-08 22:33:00,53.9,48.8,30.26,SSE,163,0.0,0.0,83,0.00,CLR,SKC,0.00,WeatherDisplay:10.37,2013-10-09 02:33:00,
2013-10-08 22:43:00,53.2,48.4,30.26,SSE,163,0.0,0.0,84,0.00,CLR,SKC,0.00,WeatherDisplay:10.37,2013-10-09 02:43:00,
2013-10-08 22:53:00,53.6,49.2,30.26,SSE,163,0.0,0.0,85,0.00,CLR,SKC,0.00,WeatherDisplay:10.37,2013-10-09 02:53:00,
2013-10-08 23:03:00,53.9,49.8,30.26,SSE,163,0.0,0.0,86,0.00,CLR,SKC,0.00,WeatherDisplay:10.37,2013-10-09 03:03:00,
2013-10-08 23:13:00,52.8,48.7,30.26,SSE,163,0.0,0.0,86,0.00,CLR,SKC,0.00,WeatherDisplay:10.37,2013-10-09 03:13:00,
2013-10-08 23:23:00,53.8,49.1,30.26,SSE,163,0.0,0.0,84,0.00,CLR,SKC,0.00,WeatherDisplay:10.37,2013-10-09 03:23:00,
2013-10-08 23:33:00,54.0,49.3,30.26,SSE,163,0.0,0.0,84,0.00,CLR,SKC,0.00,WeatherDisplay:10.37,2013-10-09 03:33:00,
2013-10-08 23:43:00,53.5,48.8,30.26,SSE,163,0.0,0.0,84,0.00,CLR,SKC,0.00,WeatherDisplay:10.37,2013-10-09 03:43:00,
2013-10-08 23:53:00,53.5,48.7,30.25,SSE,163,0.0,0.0,84,0.00,CLR,SKC,0.00,WeatherDisplay:10.37,2013-10-09 03:53:00,